owner,sensor,date,latitude,longitude,air_temperature,qcFlag 
TCOON,ioos:station:TCOON:013:1,2015-07-01T00:06:00Z,27.4847,-97.3181,27.4,1111122 
TCOON,ioos:station:TCOON:013:1,2015-07-01T01:06:00Z,27.4847,-97.3181,26.9,1111122 
TCOON,ioos:station:TCOON:013:1,2015-07-01T02:06:00Z,27.4847,-97.3181,26.5,1111122 
TCOON,ioos:station:TCOON:013:1,2015-07-01T03:06:00Z,27.4847,-97.3181,26.6,1111122 
TCOON,ioos:station:TCOON:013:1,2015-07-01T04:06:00Z,27.4847,-97.3181,26.6,1111122 
TCOON,ioos:station:TCOON:013:1,2015-07-01T05:12:00Z,27.4847,-97.3181,26.7,1111122 
TCOON,ioos:station:TCOON:013:1,2015-07-01T06:12:00Z,27.4847,-97.3181,27.1,1111122 
TCOON,ioos:station:TCOON:013:1,2015-07-01T07:24:00Z,27.4847,-97.3181,27.1,1111122 
TCOON,ioos:station:TCOON:013:1,2015-07-01T08:12:00Z,27.4847,-97.3181,27.4,1111122 
TCOON,ioos:station:TCOON:013:1,2015-07-01T09:06:00Z,27.4847,-97.3181,27.1,1111122 
TCOON,ioos:station:TCOON:013:1,2015-07-01T10:06:00Z,27.4847,-97.3181,26.7,1111122 
TCOON,ioos:station:TCOON:013:1,2015-07-01T11:06:00Z,27.4847,-97.3181,27.0,1111122 
TCOON,ioos:station:TCOON:013:1,2015-07-01T12:12:00Z,27.4847,-97.3181,26.7,1111122 
TCOON,ioos:station:TCOON:013:1,2015-07-01T13:06:00Z,27.4847,-97.3181,27.3,1111122 
TCOON,ioos:station:TCOON:013:1,2015-07-01T14:12:00Z,27.4847,-97.3181,23.9,1111122 
TCOON,ioos:station:TCOON:013:1,2015-07-01T15:12:00Z,27.4847,-97.3181,22.9,1111122 
TCOON,ioos:station:TCOON:013:1,2015-07-01T16:12:00Z,27.4847,-97.3181,23.1,1111122 
TCOON,ioos:station:TCOON:013:1,2015-07-01T17:12:00Z,27.4847,-97.3181,23.0,1111122 
TCOON,ioos:station:TCOON:013:1,2015-07-01T18:12:00Z,27.4847,-97.3181,24.6,1111122 
TCOON,ioos:station:TCOON:013:1,2015-07-01T19:12:00Z,27.4847,-97.3181,25.8,1111122 
TCOON,ioos:station:TCOON:013:1,2015-07-01T20:12:00Z,27.4847,-97.3181,26.6,1111122 
TCOON,ioos:station:TCOON:013:1,2015-07-01T21:12:00Z,27.4847,-97.3181,28.3,1111122 
TCOON,ioos:station:TCOON:013:1,2015-07-01T22:18:00Z,27.4847,-97.3181,28.8,1111122 
TCOON,ioos:station:TCOON:013:1,2015-07-01T23:12:00Z,27.4847,-97.3181,29.0,1111122 
TCOON,ioos:station:TCOON:013:1,2015-07-02T00:06:00Z,27.4847,-97.3181,27.3,1111122 
TCOON,ioos:station:TCOON:013:1,2015-07-02T01:06:00Z,27.4847,-97.3181,26.8,1111122 
TCOON,ioos:station:TCOON:013:1,2015-07-02T02:06:00Z,27.4847,-97.3181,26.3,1111122 
TCOON,ioos:station:TCOON:013:1,2015-07-02T03:12:00Z,27.4847,-97.3181,25.9,1111122 
TCOON,ioos:station:TCOON:013:1,2015-07-02T04:12:00Z,27.4847,-97.3181,25.6,1111122 
TCOON,ioos:station:TCOON:013:1,2015-07-02T05:18:00Z,27.4847,-97.3181,25.4,1111122 
TCOON,ioos:station:TCOON:013:1,2015-07-02T06:18:00Z,27.4847,-97.3181,25.4,1111122 
TCOON,ioos:station:TCOON:013:1,2015-07-02T07:18:00Z,27.4847,-97.3181,25.3,1111122 
TCOON,ioos:station:TCOON:013:1,2015-07-02T08:12:00Z,27.4847,-97.3181,25.3,1111122 
TCOON,ioos:station:TCOON:013:1,2015-07-02T09:18:00Z,27.4847,-97.3181,25.4,1111122 
TCOON,ioos:station:TCOON:013:1,2015-07-02T10:12:00Z,27.4847,-97.3181,25.5,1111122 
TCOON,ioos:station:TCOON:013:1,2015-07-02T11:12:00Z,27.4847,-97.3181,25.6,1111122 
TCOON,ioos:station:TCOON:013:1,2015-07-02T12:12:00Z,27.4847,-97.3181,26.1,1111122 
TCOON,ioos:station:TCOON:013:1,2015-07-02T13:12:00Z,27.4847,-97.3181,27.0,1111122 
TCOON,ioos:station:TCOON:013:1,2015-07-02T14:12:00Z,27.4847,-97.3181,27.8,1111122 
TCOON,ioos:station:TCOON:013:1,2015-07-02T16:12:00Z,27.4847,-97.3181,28.7,1111122 
TCOON,ioos:station:TCOON:013:1,2015-07-02T17:12:00Z,27.4847,-97.3181,28.7,1111122 
TCOON,ioos:station:TCOON:013:1,2015-07-02T18:12:00Z,27.4847,-97.3181,29.1,1111122 
TCOON,ioos:station:TCOON:013:1,2015-07-02T19:12:00Z,27.4847,-97.3181,27.3,1111122 
TCOON,ioos:station:TCOON:013:1,2015-07-02T20:12:00Z,27.4847,-97.3181,28.5,1111122 
TCOON,ioos:station:TCOON:013:1,2015-07-02T21:12:00Z,27.4847,-97.3181,28.8,1111122 
TCOON,ioos:station:TCOON:013:1,2015-07-03T13:12:00Z,27.4847,-97.3181,26.6,1111122 
TCOON,ioos:station:TCOON:013:1,2015-07-03T14:12:00Z,27.4847,-97.3181,27.4,1111122 
TCOON,ioos:station:TCOON:013:1,2015-07-03T15:12:00Z,27.4847,-97.3181,28.2,1111122 
TCOON,ioos:station:TCOON:013:1,2015-07-03T16:12:00Z,27.4847,-97.3181,28.2,1111122 
TCOON,ioos:station:TCOON:013:1,2015-07-03T17:12:00Z,27.4847,-97.3181,28.5,1111122 
TCOON,ioos:station:TCOON:013:1,2015-07-03T18:12:00Z,27.4847,-97.3181,29.1,1111122 
TCOON,ioos:station:TCOON:013:1,2015-07-03T19:12:00Z,27.4847,-97.3181,29.2,1111122 
TCOON,ioos:station:TCOON:013:1,2015-07-03T20:12:00Z,27.4847,-97.3181,28.9,1111122 
TCOON,ioos:station:TCOON:013:1,2015-07-03T21:12:00Z,27.4847,-97.3181,29.1,1111122 
TCOON,ioos:station:TCOON:013:1,2015-07-03T22:12:00Z,27.4847,-97.3181,29.3,1111122 
TCOON,ioos:station:TCOON:013:1,2015-07-03T23:18:00Z,27.4847,-97.3181,28.8,1111122 
TCOON,ioos:station:TCOON:013:1,2015-07-04T00:12:00Z,27.4847,-97.3181,28.7,1111122 
TCOON,ioos:station:TCOON:013:1,2015-07-04T01:06:00Z,27.4847,-97.3181,28.1,1111122 
TCOON,ioos:station:TCOON:013:1,2015-07-04T02:12:00Z,27.4847,-97.3181,27.6,1111122 
TCOON,ioos:station:TCOON:013:1,2015-07-04T03:06:00Z,27.4847,-97.3181,27.5,1111122 
TCOON,ioos:station:TCOON:013:1,2015-07-04T04:12:00Z,27.4847,-97.3181,27.3,1111122 
TCOON,ioos:station:TCOON:013:1,2015-07-04T05:06:00Z,27.4847,-97.3181,27.1,1111122 
TCOON,ioos:station:TCOON:013:1,2015-07-04T06:12:00Z,27.4847,-97.3181,27.0,1111122 
TCOON,ioos:station:TCOON:013:1,2015-07-04T07:24:00Z,27.4847,-97.3181,26.8,1111122 
TCOON,ioos:station:TCOON:013:1,2015-07-04T08:06:00Z,27.4847,-97.3181,26.9,1111122 
TCOON,ioos:station:TCOON:013:1,2015-07-04T09:06:00Z,27.4847,-97.3181,26.8,1111122 
TCOON,ioos:station:TCOON:013:1,2015-07-04T10:12:00Z,27.4847,-97.3181,26.8,1111122 
TCOON,ioos:station:TCOON:013:1,2015-07-04T11:06:00Z,27.4847,-97.3181,26.8,1111122 
TCOON,ioos:station:TCOON:013:1,2015-07-04T12:06:00Z,27.4847,-97.3181,26.6,1111122 
TCOON,ioos:station:TCOON:013:1,2015-07-04T13:06:00Z,27.4847,-97.3181,26.8,1111122 
TCOON,ioos:station:TCOON:013:1,2015-07-04T14:12:00Z,27.4847,-97.3181,27.7,1111122 
TCOON,ioos:station:TCOON:013:1,2015-07-04T15:12:00Z,27.4847,-97.3181,28.2,1111122 
TCOON,ioos:station:TCOON:013:1,2015-07-04T16:18:00Z,27.4847,-97.3181,28.5,1111122 
TCOON,ioos:station:TCOON:013:1,2015-07-04T17:12:00Z,27.4847,-97.3181,28.7,1111122 
TCOON,ioos:station:TCOON:013:1,2015-07-04T18:12:00Z,27.4847,-97.3181,28.9,1111122 
TCOON,ioos:station:TCOON:013:1,2015-07-04T19:12:00Z,27.4847,-97.3181,29.1,1111122 
TCOON,ioos:station:TCOON:013:1,2015-07-04T20:12:00Z,27.4847,-97.3181,29.1,1111122 
TCOON,ioos:station:TCOON:013:1,2015-07-04T21:12:00Z,27.4847,-97.3181,29.2,1111122 
TCOON,ioos:station:TCOON:013:1,2015-07-04T22:12:00Z,27.4847,-97.3181,29.3,1111122 
TCOON,ioos:station:TCOON:013:1,2015-07-04T23:12:00Z,27.4847,-97.3181,29.2,1111122 
TCOON,ioos:station:TCOON:013:1,2015-07-05T00:18:00Z,27.4847,-97.3181,27.9,1111122 
TCOON,ioos:station:TCOON:013:1,2015-07-05T01:06:00Z,27.4847,-97.3181,27.6,1111122 
TCOON,ioos:station:TCOON:013:1,2015-07-05T02:06:00Z,27.4847,-97.3181,27.2,1111122 
TCOON,ioos:station:TCOON:013:1,2015-07-05T03:06:00Z,27.4847,-97.3181,27.2,1111122 
TCOON,ioos:station:TCOON:013:1,2015-07-05T04:12:00Z,27.4847,-97.3181,27.0,1111122 
TCOON,ioos:station:TCOON:013:1,2015-07-05T05:06:00Z,27.4847,-97.3181,27.0,1111122 
TCOON,ioos:station:TCOON:013:1,2015-07-05T06:12:00Z,27.4847,-97.3181,26.8,1111122 
TCOON,ioos:station:TCOON:013:1,2015-07-05T07:12:00Z,27.4847,-97.3181,26.7,1111122 
TCOON,ioos:station:TCOON:013:1,2015-07-05T08:12:00Z,27.4847,-97.3181,26.6,1111122 
TCOON,ioos:station:TCOON:013:1,2015-07-05T09:06:00Z,27.4847,-97.3181,26.7,1111122 
TCOON,ioos:station:TCOON:013:1,2015-07-05T10:06:00Z,27.4847,-97.3181,26.8,1111122 
TCOON,ioos:station:TCOON:013:1,2015-07-05T11:12:00Z,27.4847,-97.3181,26.8,1111122 
TCOON,ioos:station:TCOON:013:1,2015-07-05T12:12:00Z,27.4847,-97.3181,26.8,1111122 
TCOON,ioos:station:TCOON:013:1,2015-07-05T13:06:00Z,27.4847,-97.3181,27.1,1111122 
TCOON,ioos:station:TCOON:013:1,2015-07-05T14:06:00Z,27.4847,-97.3181,27.8,1111122 
TCOON,ioos:station:TCOON:013:1,2015-07-05T15:12:00Z,27.4847,-97.3181,28.3,1111122 
TCOON,ioos:station:TCOON:013:1,2015-07-05T16:12:00Z,27.4847,-97.3181,28.4,1111122 
TCOON,ioos:station:TCOON:013:1,2015-07-05T17:12:00Z,27.4847,-97.3181,28.9,1111122 
TCOON,ioos:station:TCOON:013:1,2015-07-05T18:12:00Z,27.4847,-97.3181,29.0,1111122 
TCOON,ioos:station:TCOON:013:1,2015-07-05T19:12:00Z,27.4847,-97.3181,28.9,1111122 
TCOON,ioos:station:TCOON:013:1,2015-07-05T20:12:00Z,27.4847,-97.3181,29.0,1111122 
TCOON,ioos:station:TCOON:013:1,2015-07-05T21:06:00Z,27.4847,-97.3181,29.1,1111122 
TCOON,ioos:station:TCOON:013:1,2015-07-05T22:12:00Z,27.4847,-97.3181,29.1,1111122 
TCOON,ioos:station:TCOON:013:1,2015-07-05T23:12:00Z,27.4847,-97.3181,28.8,1111122 
TCOON,ioos:station:TCOON:013:1,2015-07-06T00:12:00Z,27.4847,-97.3181,28.3,1111122 
TCOON,ioos:station:TCOON:013:1,2015-07-06T01:06:00Z,27.4847,-97.3181,27.9,1111122 
TCOON,ioos:station:TCOON:013:1,2015-07-06T02:06:00Z,27.4847,-97.3181,27.6,1111122 
TCOON,ioos:station:TCOON:013:1,2015-07-06T03:06:00Z,27.4847,-97.3181,27.6,1111122 
TCOON,ioos:station:TCOON:013:1,2015-07-06T04:12:00Z,27.4847,-97.3181,27.5,1111122 
TCOON,ioos:station:TCOON:013:1,2015-07-06T05:12:00Z,27.4847,-97.3181,27.3,1111122 
TCOON,ioos:station:TCOON:013:1,2015-07-06T06:18:00Z,27.4847,-97.3181,27.1,1111122 
TCOON,ioos:station:TCOON:013:1,2015-07-06T07:24:00Z,27.4847,-97.3181,26.9,1111122 
TCOON,ioos:station:TCOON:013:1,2015-07-06T08:12:00Z,27.4847,-97.3181,26.8,1111122 
TCOON,ioos:station:TCOON:013:1,2015-07-06T09:12:00Z,27.4847,-97.3181,26.6,1111122 
TCOON,ioos:station:TCOON:013:1,2015-07-06T10:06:00Z,27.4847,-97.3181,26.4,1111122 
TCOON,ioos:station:TCOON:013:1,2015-07-06T11:06:00Z,27.4847,-97.3181,26.3,1111122 
TCOON,ioos:station:TCOON:013:1,2015-07-06T12:12:00Z,27.4847,-97.3181,26.4,1111122 
TCOON,ioos:station:TCOON:013:1,2015-07-06T13:12:00Z,27.4847,-97.3181,26.9,1111122 
TCOON,ioos:station:TCOON:013:1,2015-07-06T14:12:00Z,27.4847,-97.3181,27.6,1111122 
TCOON,ioos:station:TCOON:013:1,2015-07-06T15:12:00Z,27.4847,-97.3181,27.9,1111122 
TCOON,ioos:station:TCOON:013:1,2015-07-06T16:12:00Z,27.4847,-97.3181,28.6,1111122 
TCOON,ioos:station:TCOON:013:1,2015-07-06T17:12:00Z,27.4847,-97.3181,29.0,1111122 
TCOON,ioos:station:TCOON:013:1,2015-07-06T18:12:00Z,27.4847,-97.3181,28.9,1111122 
TCOON,ioos:station:TCOON:013:1,2015-07-06T19:12:00Z,27.4847,-97.3181,29.2,1111122 
TCOON,ioos:station:TCOON:013:1,2015-07-06T20:12:00Z,27.4847,-97.3181,29.0,1111122 
TCOON,ioos:station:TCOON:013:1,2015-07-06T21:12:00Z,27.4847,-97.3181,29.0,1111122 
TCOON,ioos:station:TCOON:013:1,2015-07-06T22:24:00Z,27.4847,-97.3181,28.9,1111122 
TCOON,ioos:station:TCOON:013:1,2015-07-06T23:12:00Z,27.4847,-97.3181,28.9,1111122 
TCOON,ioos:station:TCOON:013:1,2015-07-07T00:06:00Z,27.4847,-97.3181,28.4,1111122 
TCOON,ioos:station:TCOON:013:1,2015-07-07T01:06:00Z,27.4847,-97.3181,28.0,1111122 
TCOON,ioos:station:TCOON:013:1,2015-07-07T02:06:00Z,27.4847,-97.3181,27.7,1111122 
TCOON,ioos:station:TCOON:013:1,2015-07-07T03:06:00Z,27.4847,-97.3181,27.5,1111122 
TCOON,ioos:station:TCOON:013:1,2015-07-07T04:12:00Z,27.4847,-97.3181,27.6,1111122 
TCOON,ioos:station:TCOON:013:1,2015-07-07T05:12:00Z,27.4847,-97.3181,27.5,1111122 
TCOON,ioos:station:TCOON:013:1,2015-07-07T06:24:00Z,27.4847,-97.3181,27.3,1111122 
TCOON,ioos:station:TCOON:013:1,2015-07-07T07:18:00Z,27.4847,-97.3181,27.2,1111122 
TCOON,ioos:station:TCOON:013:1,2015-07-07T08:12:00Z,27.4847,-97.3181,27.2,1111122 
TCOON,ioos:station:TCOON:013:1,2015-07-07T09:12:00Z,27.4847,-97.3181,27.1,1111122 
TCOON,ioos:station:TCOON:013:1,2015-07-07T14:12:00Z,27.4847,-97.3181,27.7,1111122 
TCOON,ioos:station:TCOON:013:1,2015-07-07T15:12:00Z,27.4847,-97.3181,28.1,1111122 
TCOON,ioos:station:TCOON:013:1,2015-07-07T16:12:00Z,27.4847,-97.3181,28.6,1111122 
TCOON,ioos:station:TCOON:013:1,2015-07-07T17:12:00Z,27.4847,-97.3181,28.6,1111122 
TCOON,ioos:station:TCOON:013:1,2015-07-07T18:12:00Z,27.4847,-97.3181,28.9,1111122 
TCOON,ioos:station:TCOON:013:1,2015-07-07T19:12:00Z,27.4847,-97.3181,29.0,1111122 
TCOON,ioos:station:TCOON:013:1,2015-07-07T20:12:00Z,27.4847,-97.3181,28.9,1111122 
TCOON,ioos:station:TCOON:013:1,2015-07-07T21:12:00Z,27.4847,-97.3181,29.2,1111122 
TCOON,ioos:station:TCOON:013:1,2015-07-07T22:18:00Z,27.4847,-97.3181,29.1,1111122 
TCOON,ioos:station:TCOON:013:1,2015-07-07T23:12:00Z,27.4847,-97.3181,28.9,1111122 
TCOON,ioos:station:TCOON:013:1,2015-07-08T00:06:00Z,27.4847,-97.3181,28.5,1111122 
TCOON,ioos:station:TCOON:013:1,2015-07-08T01:12:00Z,27.4847,-97.3181,28.0,1111122 
TCOON,ioos:station:TCOON:013:1,2015-07-08T02:06:00Z,27.4847,-97.3181,27.8,1111122 
TCOON,ioos:station:TCOON:013:1,2015-07-08T03:06:00Z,27.4847,-97.3181,27.7,1111122 
TCOON,ioos:station:TCOON:013:1,2015-07-08T04:12:00Z,27.4847,-97.3181,27.5,1111122 
TCOON,ioos:station:TCOON:013:1,2015-07-08T05:12:00Z,27.4847,-97.3181,27.4,1111122 
TCOON,ioos:station:TCOON:013:1,2015-07-08T06:12:00Z,27.4847,-97.3181,27.2,1111122 
TCOON,ioos:station:TCOON:013:1,2015-07-08T07:12:00Z,27.4847,-97.3181,27.1,1111122 
TCOON,ioos:station:TCOON:013:1,2015-07-08T08:06:00Z,27.4847,-97.3181,27.0,1111122 
TCOON,ioos:station:TCOON:013:1,2015-07-08T09:12:00Z,27.4847,-97.3181,26.9,1111122 
TCOON,ioos:station:TCOON:013:1,2015-07-08T10:06:00Z,27.4847,-97.3181,26.8,1111122 
TCOON,ioos:station:TCOON:013:1,2015-07-08T11:12:00Z,27.4847,-97.3181,26.7,1111122 
TCOON,ioos:station:TCOON:013:1,2015-07-08T12:06:00Z,27.4847,-97.3181,26.6,1111122 
TCOON,ioos:station:TCOON:013:1,2015-07-08T13:12:00Z,27.4847,-97.3181,27.1,1111122 
TCOON,ioos:station:TCOON:013:1,2015-07-08T14:12:00Z,27.4847,-97.3181,27.4,1111122 
TCOON,ioos:station:TCOON:013:1,2015-07-08T15:18:00Z,27.4847,-97.3181,27.9,1111122 
TCOON,ioos:station:TCOON:013:1,2015-07-08T16:18:00Z,27.4847,-97.3181,28.2,1111122 
TCOON,ioos:station:TCOON:013:1,2015-07-08T17:12:00Z,27.4847,-97.3181,28.7,1111122 
TCOON,ioos:station:TCOON:013:1,2015-07-08T18:18:00Z,27.4847,-97.3181,28.5,1111122 
TCOON,ioos:station:TCOON:013:1,2015-07-08T19:18:00Z,27.4847,-97.3181,28.8,1111122 
TCOON,ioos:station:TCOON:013:1,2015-07-08T20:18:00Z,27.4847,-97.3181,29.0,1111122 
TCOON,ioos:station:TCOON:013:1,2015-07-08T21:12:00Z,27.4847,-97.3181,29.0,1111122 
TCOON,ioos:station:TCOON:013:1,2015-07-08T22:18:00Z,27.4847,-97.3181,28.8,1111122 
TCOON,ioos:station:TCOON:013:1,2015-07-08T23:12:00Z,27.4847,-97.3181,28.6,1111122 
TCOON,ioos:station:TCOON:013:1,2015-07-09T00:12:00Z,27.4847,-97.3181,28.4,1111122 
TCOON,ioos:station:TCOON:013:1,2015-07-09T01:06:00Z,27.4847,-97.3181,27.9,1111122 
TCOON,ioos:station:TCOON:013:1,2015-07-09T02:06:00Z,27.4847,-97.3181,27.7,1111122 
TCOON,ioos:station:TCOON:013:1,2015-07-09T03:06:00Z,27.4847,-97.3181,27.7,1111122 
TCOON,ioos:station:TCOON:013:1,2015-07-09T04:12:00Z,27.4847,-97.3181,27.6,1111122 
TCOON,ioos:station:TCOON:013:1,2015-07-09T05:12:00Z,27.4847,-97.3181,27.4,1111122 
TCOON,ioos:station:TCOON:013:1,2015-07-09T06:18:00Z,27.4847,-97.3181,27.5,1111122 
TCOON,ioos:station:TCOON:013:1,2015-07-09T07:18:00Z,27.4847,-97.3181,27.2,1111122 
TCOON,ioos:station:TCOON:013:1,2015-07-09T08:06:00Z,27.4847,-97.3181,27.1,1111122 
TCOON,ioos:station:TCOON:013:1,2015-07-09T09:06:00Z,27.4847,-97.3181,26.9,1111122 
TCOON,ioos:station:TCOON:013:1,2015-07-09T10:12:00Z,27.4847,-97.3181,26.7,1111122 
TCOON,ioos:station:TCOON:013:1,2015-07-09T11:06:00Z,27.4847,-97.3181,26.6,1111122 
TCOON,ioos:station:TCOON:013:1,2015-07-09T12:12:00Z,27.4847,-97.3181,26.6,1111122 
TCOON,ioos:station:TCOON:013:1,2015-07-09T13:42:00Z,27.4847,-97.3181,27.3,1111122 
TCOON,ioos:station:TCOON:013:1,2015-07-09T14:42:00Z,27.4847,-97.3181,27.8,1111122 
TCOON,ioos:station:TCOON:013:1,2015-07-09T15:12:00Z,27.4847,-97.3181,28.0,1111122 
TCOON,ioos:station:TCOON:013:1,2015-07-09T16:18:00Z,27.4847,-97.3181,28.6,1111122 
TCOON,ioos:station:TCOON:013:1,2015-07-09T17:12:00Z,27.4847,-97.3181,28.7,1111122 
TCOON,ioos:station:TCOON:013:1,2015-07-09T18:30:00Z,27.4847,-97.3181,28.8,1111122 
TCOON,ioos:station:TCOON:013:1,2015-07-09T19:18:00Z,27.4847,-97.3181,28.9,1111122 
TCOON,ioos:station:TCOON:013:1,2015-07-09T20:18:00Z,27.4847,-97.3181,28.8,1111122 
TCOON,ioos:station:TCOON:013:1,2015-07-09T21:12:00Z,27.4847,-97.3181,28.7,1111122 
TCOON,ioos:station:TCOON:013:1,2015-07-09T22:12:00Z,27.4847,-97.3181,29.1,1111122 
TCOON,ioos:station:TCOON:013:1,2015-07-09T23:12:00Z,27.4847,-97.3181,28.8,1111122 
TCOON,ioos:station:TCOON:013:1,2015-07-10T00:12:00Z,27.4847,-97.3181,28.4,1111122 
TCOON,ioos:station:TCOON:013:1,2015-07-10T01:12:00Z,27.4847,-97.3181,27.9,1111122 
TCOON,ioos:station:TCOON:013:1,2015-07-10T02:12:00Z,27.4847,-97.3181,27.6,1111122 
TCOON,ioos:station:TCOON:013:1,2015-07-10T03:12:00Z,27.4847,-97.3181,27.6,1111122 
TCOON,ioos:station:TCOON:013:1,2015-07-10T04:12:00Z,27.4847,-97.3181,27.6,1111122 
TCOON,ioos:station:TCOON:013:1,2015-07-10T05:12:00Z,27.4847,-97.3181,27.5,1111122 
TCOON,ioos:station:TCOON:013:1,2015-07-10T06:12:00Z,27.4847,-97.3181,27.5,1111122 
TCOON,ioos:station:TCOON:013:1,2015-07-10T07:18:00Z,27.4847,-97.3181,27.4,1111122 
TCOON,ioos:station:TCOON:013:1,2015-07-10T08:12:00Z,27.4847,-97.3181,27.3,1111122 
TCOON,ioos:station:TCOON:013:1,2015-07-10T09:06:00Z,27.4847,-97.3181,27.3,1111122 
TCOON,ioos:station:TCOON:013:1,2015-07-10T10:06:00Z,27.4847,-97.3181,27.1,1111122 
TCOON,ioos:station:TCOON:013:1,2015-07-10T11:06:00Z,27.4847,-97.3181,26.8,1111122 
TCOON,ioos:station:TCOON:013:1,2015-07-10T12:12:00Z,27.4847,-97.3181,26.8,1111122 
TCOON,ioos:station:TCOON:013:1,2015-07-10T13:12:00Z,27.4847,-97.3181,27.3,1111122 
TCOON,ioos:station:TCOON:013:1,2015-07-10T14:12:00Z,27.4847,-97.3181,28.0,1111122 
TCOON,ioos:station:TCOON:013:1,2015-07-10T15:12:00Z,27.4847,-97.3181,28.2,1111122 
TCOON,ioos:station:TCOON:013:1,2015-07-10T16:06:00Z,27.4847,-97.3181,28.5,1111122 
TCOON,ioos:station:TCOON:013:1,2015-07-10T17:12:00Z,27.4847,-97.3181,28.6,1111122 
TCOON,ioos:station:TCOON:013:1,2015-07-10T18:12:00Z,27.4847,-97.3181,28.8,1111122 
TCOON,ioos:station:TCOON:013:1,2015-07-10T19:12:00Z,27.4847,-97.3181,29.0,1111122 
TCOON,ioos:station:TCOON:013:1,2015-07-10T20:12:00Z,27.4847,-97.3181,29.0,1111122 
TCOON,ioos:station:TCOON:013:1,2015-07-10T21:12:00Z,27.4847,-97.3181,29.0,1111122 
TCOON,ioos:station:TCOON:013:1,2015-07-10T22:12:00Z,27.4847,-97.3181,28.9,1111122 
TCOON,ioos:station:TCOON:013:1,2015-07-10T23:12:00Z,27.4847,-97.3181,29.0,1111122 
TCOON,ioos:station:TCOON:013:1,2015-07-11T00:12:00Z,27.4847,-97.3181,28.5,1111122 
TCOON,ioos:station:TCOON:013:1,2015-07-11T01:12:00Z,27.4847,-97.3181,28.1,1111122 
TCOON,ioos:station:TCOON:013:1,2015-07-11T02:24:00Z,27.4847,-97.3181,27.8,1111122 
TCOON,ioos:station:TCOON:013:1,2015-07-11T03:18:00Z,27.4847,-97.3181,27.6,1111122 
TCOON,ioos:station:TCOON:013:1,2015-07-11T04:12:00Z,27.4847,-97.3181,27.4,1111122 
TCOON,ioos:station:TCOON:013:1,2015-07-11T05:12:00Z,27.4847,-97.3181,27.4,1111122 
TCOON,ioos:station:TCOON:013:1,2015-07-11T06:18:00Z,27.4847,-97.3181,27.2,1111122 
TCOON,ioos:station:TCOON:013:1,2015-07-11T07:30:00Z,27.4847,-97.3181,27.0,1111122 
TCOON,ioos:station:TCOON:013:1,2015-07-11T08:12:00Z,27.4847,-97.3181,27.1,1111122 
TCOON,ioos:station:TCOON:013:1,2015-07-11T09:06:00Z,27.4847,-97.3181,26.8,1111122 
TCOON,ioos:station:TCOON:013:1,2015-07-11T10:12:00Z,27.4847,-97.3181,26.6,1111122 
TCOON,ioos:station:TCOON:013:1,2015-07-11T11:12:00Z,27.4847,-97.3181,26.4,1111122 
TCOON,ioos:station:TCOON:013:1,2015-07-11T12:12:00Z,27.4847,-97.3181,26.6,1111122 
TCOON,ioos:station:TCOON:013:1,2015-07-11T13:06:00Z,27.4847,-97.3181,27.2,1111122 
TCOON,ioos:station:TCOON:013:1,2015-07-11T14:12:00Z,27.4847,-97.3181,27.9,1111122 
TCOON,ioos:station:TCOON:013:1,2015-07-11T15:12:00Z,27.4847,-97.3181,28.7,1111122 
TCOON,ioos:station:TCOON:013:1,2015-07-11T16:12:00Z,27.4847,-97.3181,28.7,1111122 
TCOON,ioos:station:TCOON:013:1,2015-07-11T17:12:00Z,27.4847,-97.3181,28.7,1111122 
TCOON,ioos:station:TCOON:013:1,2015-07-11T18:12:00Z,27.4847,-97.3181,29.2,1111122 
TCOON,ioos:station:TCOON:013:1,2015-07-11T19:12:00Z,27.4847,-97.3181,29.0,1111122 
TCOON,ioos:station:TCOON:013:1,2015-07-11T20:12:00Z,27.4847,-97.3181,29.5,1111122 
TCOON,ioos:station:TCOON:013:1,2015-07-11T21:12:00Z,27.4847,-97.3181,29.3,1111122 
TCOON,ioos:station:TCOON:013:1,2015-07-11T22:06:00Z,27.4847,-97.3181,29.3,1111122 
TCOON,ioos:station:TCOON:013:1,2015-07-11T23:12:00Z,27.4847,-97.3181,29.2,1111122 
TCOON,ioos:station:TCOON:013:1,2015-07-12T00:06:00Z,27.4847,-97.3181,29.0,1111122 
TCOON,ioos:station:TCOON:013:1,2015-07-12T01:06:00Z,27.4847,-97.3181,28.5,1111122 
TCOON,ioos:station:TCOON:013:1,2015-07-12T02:06:00Z,27.4847,-97.3181,28.3,1111122 
TCOON,ioos:station:TCOON:013:1,2015-07-12T03:06:00Z,27.4847,-97.3181,27.9,1111122 
TCOON,ioos:station:TCOON:013:1,2015-07-12T04:06:00Z,27.4847,-97.3181,28.0,1111122 
TCOON,ioos:station:TCOON:013:1,2015-07-12T05:06:00Z,27.4847,-97.3181,27.8,1111122 
TCOON,ioos:station:TCOON:013:1,2015-07-12T06:18:00Z,27.4847,-97.3181,27.7,1111122 
TCOON,ioos:station:TCOON:013:1,2015-07-12T07:18:00Z,27.4847,-97.3181,27.6,1111122 
TCOON,ioos:station:TCOON:013:1,2015-07-12T08:18:00Z,27.4847,-97.3181,27.5,1111122 
TCOON,ioos:station:TCOON:013:1,2015-07-12T09:12:00Z,27.4847,-97.3181,27.3,1111122 
TCOON,ioos:station:TCOON:013:1,2015-07-12T10:06:00Z,27.4847,-97.3181,27.2,1111122 
TCOON,ioos:station:TCOON:013:1,2015-07-12T11:12:00Z,27.4847,-97.3181,27.0,1111122 
TCOON,ioos:station:TCOON:013:1,2015-07-12T12:18:00Z,27.4847,-97.3181,27.0,1111122 
TCOON,ioos:station:TCOON:013:1,2015-07-12T13:12:00Z,27.4847,-97.3181,27.4,1111122 
TCOON,ioos:station:TCOON:013:1,2015-07-12T14:12:00Z,27.4847,-97.3181,27.8,1111122 
TCOON,ioos:station:TCOON:013:1,2015-07-12T15:12:00Z,27.4847,-97.3181,28.2,1111122 
TCOON,ioos:station:TCOON:013:1,2015-07-12T16:12:00Z,27.4847,-97.3181,28.4,1111122 
TCOON,ioos:station:TCOON:013:1,2015-07-12T17:12:00Z,27.4847,-97.3181,28.8,1111122 
TCOON,ioos:station:TCOON:013:1,2015-07-12T18:12:00Z,27.4847,-97.3181,29.2,1111122 
TCOON,ioos:station:TCOON:013:1,2015-07-12T19:12:00Z,27.4847,-97.3181,29.5,1111122 
TCOON,ioos:station:TCOON:013:1,2015-07-12T20:12:00Z,27.4847,-97.3181,29.4,1111122 
TCOON,ioos:station:TCOON:013:1,2015-07-12T21:12:00Z,27.4847,-97.3181,29.3,1111122 
TCOON,ioos:station:TCOON:013:1,2015-07-12T22:12:00Z,27.4847,-97.3181,29.4,1111122 
TCOON,ioos:station:TCOON:013:1,2015-07-12T23:12:00Z,27.4847,-97.3181,29.3,1111122 
TCOON,ioos:station:TCOON:013:1,2015-07-13T00:06:00Z,27.4847,-97.3181,29.0,1111122 
TCOON,ioos:station:TCOON:013:1,2015-07-13T01:06:00Z,27.4847,-97.3181,28.6,1111122 
TCOON,ioos:station:TCOON:013:1,2015-07-13T02:06:00Z,27.4847,-97.3181,28.3,1111122 
TCOON,ioos:station:TCOON:013:1,2015-07-13T03:06:00Z,27.4847,-97.3181,28.0,1111122 
TCOON,ioos:station:TCOON:013:1,2015-07-13T04:12:00Z,27.4847,-97.3181,28.0,1111122 
TCOON,ioos:station:TCOON:013:1,2015-07-13T05:06:00Z,27.4847,-97.3181,27.8,1111122 
TCOON,ioos:station:TCOON:013:1,2015-07-13T06:12:00Z,27.4847,-97.3181,27.7,1111122 
TCOON,ioos:station:TCOON:013:1,2015-07-13T07:12:00Z,27.4847,-97.3181,27.5,1111122 
TCOON,ioos:station:TCOON:013:1,2015-07-13T14:30:00Z,27.4847,-97.3181,27.9,1111122 
TCOON,ioos:station:TCOON:013:1,2015-07-13T15:12:00Z,27.4847,-97.3181,28.2,1111122 
TCOON,ioos:station:TCOON:013:1,2015-07-13T16:12:00Z,27.4847,-97.3181,28.7,1111122 
TCOON,ioos:station:TCOON:013:1,2015-07-13T17:12:00Z,27.4847,-97.3181,29.0,1111122 
TCOON,ioos:station:TCOON:013:1,2015-07-13T18:12:00Z,27.4847,-97.3181,28.9,1111122 
TCOON,ioos:station:TCOON:013:1,2015-07-13T19:12:00Z,27.4847,-97.3181,29.1,1111122 
TCOON,ioos:station:TCOON:013:1,2015-07-13T20:12:00Z,27.4847,-97.3181,29.3,1111122 
TCOON,ioos:station:TCOON:013:1,2015-07-13T21:12:00Z,27.4847,-97.3181,29.1,1111122 
TCOON,ioos:station:TCOON:013:1,2015-07-13T22:18:00Z,27.4847,-97.3181,29.3,1111122 
TCOON,ioos:station:TCOON:013:1,2015-07-13T23:12:00Z,27.4847,-97.3181,28.9,1111122 
TCOON,ioos:station:TCOON:013:1,2015-07-14T00:06:00Z,27.4847,-97.3181,28.6,1111122 
TCOON,ioos:station:TCOON:013:1,2015-07-14T01:06:00Z,27.4847,-97.3181,28.3,1111122 